Weather History for KRKD - November, 2011

Change the Weather History Date:

Thursday, November 24, 2011

  Actual Average Record
Temperature  
Mean Temperature 30 °F -  
Max Temperature 35 °F 41 °F 57 °F (2014)
Min Temperature 26 °F 29 °F 12 °F (2008)
Degree Days  
Heating Degree Days 34    
Moisture  
Dew Point 22 °F    
Average Humidity 68    
Maximum Humidity 75    
Minimum Humidity 60    
Precipitation  
Precipitation 0.00 in - - ()
Sea Level Pressure  
Sea Level Pressure 30.04 in    
Wind  
Wind Speed 6 mph (NNW)    
Max Wind Speed 12 mph    
Max Gust Speed 20 mph    
Visibility 10 miles    
Events      
Averages and records for this station are not official NWS values.
T = Trace of Precipitation, MM = Missing Value Source: NWS Daily Summary

Daily Weather History Graph

Daily Weather History Graph

Search for Another Location

Airport or City:

Trip Planner

Search our weather history database for the weather conditions in past years. The results will help you decide how hot, cold, wet, or windy it might be!

Date:

Astronomy

Nov. 24, 2011 Rise Set
Actual Time 6:42 AM EST 4:03 PM EST
Civil Twilight 6:10 AM EST 4:34 PM EST
Nautical Twilight 5:35 AM EST 5:10 PM EST
Astronomical Twilight 5:00 AM EST 5:44 PM EST
Moon 5:57 AM EST (11/24) 3:29 PM EST (11/24)
Length of Visible Light 10h 24m
Length of Day
9h 20m
Waning Crescent, 0% of the Moon is Illuminated
Nov 24
Waning Crescent
Nov 25
New
Dec 2
First Quarter
Dec 10
Full
Dec 17
Last Quarter

Hourly Weather History & Observations

Time (EST) Temp. Windchill Dew Point Humidity Pressure Visibility Wind Dir Wind Speed Gust Speed Precip Events Conditions
12:15 AM 26.6 °F 20.0 °F 19.4 °F 74% 29.92 in 10.0 mi North 5.8 mph 19.6 mph N/A   Clear
12:35 AM - - - N/A% 29.93 in 10.0 mi NNW 6.9 mph - N/A   Clear
12:55 AM - - - N/A% 29.93 in 10.0 mi North 11.5 mph 17.3 mph N/A   Clear
1:15 AM 26.6 °F 16.2 °F 17.6 °F 69% 29.94 in 10.0 mi NNW 11.5 mph - N/A   Clear
1:35 AM 26.6 °F 22.6 °F 19.4 °F 74% 29.95 in 10.0 mi NW 3.5 mph - N/A   Clear
1:55 AM 26.6 °F 22.6 °F 17.6 °F 69% 29.95 in 10.0 mi NNW 3.5 mph - N/A   Clear
2:15 AM 26.6 °F 17.5 °F 19.4 °F 74% 29.95 in 10.0 mi North 9.2 mph - N/A   Clear
2:35 AM 28.4 °F 21.2 °F 19.4 °F 69% 29.96 in 10.0 mi North 6.9 mph - N/A   Clear
2:55 AM 28.4 °F 19.7 °F 19.4 °F 69% 29.96 in 10.0 mi North 9.2 mph - N/A   Clear
3:15 AM 28.4 °F 21.2 °F 17.6 °F 64% 29.97 in 10.0 mi North 6.9 mph 19.6 mph N/A   Clear
3:35 AM 28.4 °F 19.7 °F 19.4 °F 69% 29.97 in 10.0 mi North 9.2 mph 17.3 mph N/A   Clear
3:55 AM 28.4 °F 22.2 °F 19.4 °F 69% 29.98 in 10.0 mi North 5.8 mph - N/A   Clear
4:15 AM 26.6 °F 19.1 °F 19.4 °F 74% 29.99 in 10.0 mi North 6.9 mph - N/A   Clear
4:35 AM 26.6 °F 19.1 °F 19.4 °F 74% 29.99 in 10.0 mi North 6.9 mph - N/A   Clear
4:55 AM 26.6 °F 18.2 °F 19.4 °F 74% 30.00 in 10.0 mi NNW 8.1 mph - N/A   Clear
5:15 AM 26.6 °F 22.6 °F 19.4 °F 74% 30.00 in 10.0 mi North 3.5 mph - N/A   Clear
5:35 AM 26.6 °F 21.2 °F 19.4 °F 74% 30.01 in 10.0 mi NNW 4.6 mph - N/A   Clear
5:55 AM 26.6 °F 20.0 °F 19.4 °F 74% 30.02 in 10.0 mi NW 5.8 mph - N/A   Clear
6:15 AM 26.6 °F 19.1 °F 17.6 °F 69% 30.04 in 10.0 mi NNW 6.9 mph - N/A   Clear
6:35 AM 26.6 °F 18.2 °F 17.6 °F 69% 30.04 in 10.0 mi NNW 8.1 mph - N/A   Clear
6:55 AM 26.6 °F 19.1 °F 17.6 °F 69% 30.05 in 10.0 mi NNW 6.9 mph - N/A   Clear
7:15 AM 26.6 °F 21.2 °F 19.4 °F 74% 30.06 in 10.0 mi NNW 4.6 mph - N/A   Clear
7:35 AM 28.4 °F 22.2 °F 19.4 °F 69% 30.06 in 10.0 mi NNW 5.8 mph - N/A   Clear
7:55 AM 28.4 °F 22.2 °F 19.4 °F 69% 30.07 in 10.0 mi North 5.8 mph - N/A   Clear
8:35 AM 30.2 °F 23.4 °F 21.2 °F 69% 30.08 in 10.0 mi North 6.9 mph - N/A   Clear
8:55 AM 32.0 °F 24.8 °F 21.2 °F 64% 30.08 in 10.0 mi North 8.1 mph - N/A   Clear
9:15 AM 32.0 °F 25.6 °F 21.2 °F 64% 30.08 in 10.0 mi North 6.9 mph - N/A   Clear
9:35 AM 33.8 °F 28.6 °F 21.2 °F 60% 30.08 in 10.0 mi North 5.8 mph - N/A   Clear
9:55 AM 33.8 °F 25.8 °F 23.0 °F 65% 30.09 in 10.0 mi NNE 10.4 mph - N/A   Clear
10:15 AM 33.8 °F 25.3 °F 23.0 °F 65% 30.08 in 10.0 mi NNE 11.5 mph - N/A   Clear
10:35 AM 33.8 °F 30.8 °F 23.0 °F 65% 30.08 in 10.0 mi North 3.5 mph - N/A   Partly Cloudy
11:15 AM 33.8 °F 29.6 °F 23.0 °F 65% 30.06 in 10.0 mi North 4.6 mph - N/A   Clear
11:55 AM 33.8 °F - 23.0 °F 65% 30.06 in 10.0 mi Calm Calm - N/A   Clear
12:15 PM 35.6 °F 30.7 °F 24.8 °F 65% 30.06 in 10.0 mi West 5.8 mph - N/A   Clear
12:35 PM 35.6 °F 30.7 °F 23.0 °F 60% 30.06 in 10.0 mi West 5.8 mph - N/A   Clear
12:55 PM 35.6 °F 29.9 °F 23.0 °F 60% 30.06 in 10.0 mi West 6.9 mph - N/A   Clear
1:15 PM 35.6 °F 30.7 °F 23.0 °F 60% 30.07 in 10.0 mi West 5.8 mph - N/A   Clear
1:35 PM 35.6 °F 29.9 °F 23.0 °F 60% 30.07 in 10.0 mi West 6.9 mph - N/A   Clear
1:55 PM 35.6 °F 29.2 °F 23.0 °F 60% 30.07 in 10.0 mi West 8.1 mph - N/A   Clear
2:15 PM 35.6 °F 29.2 °F 23.0 °F 60% 30.09 in 10.0 mi West 8.1 mph - N/A   Clear
2:35 PM 35.6 °F 29.2 °F 24.8 °F 65% 30.08 in 10.0 mi West 8.1 mph - N/A   Clear
3:15 PM 35.6 °F 29.2 °F 23.0 °F 60% 30.09 in 10.0 mi WSW 8.1 mph - N/A   Clear
3:35 PM 35.6 °F 32.8 °F 23.0 °F 60% 30.09 in 10.0 mi West 3.5 mph - N/A   Clear
3:55 PM 33.8 °F - 23.0 °F 65% 30.09 in 10.0 mi Calm Calm - N/A   Clear
4:15 PM 32.0 °F - 23.0 °F 69% 30.09 in 10.0 mi Calm Calm - N/A   Mostly Cloudy
4:35 PM 32.0 °F - 23.0 °F 69% 30.09 in 10.0 mi Calm Calm - N/A   Overcast
4:55 PM 32.0 °F - 24.8 °F 75% 30.10 in 10.0 mi Calm Calm - N/A   Overcast
5:15 PM 32.0 °F - 24.8 °F 75% 30.10 in 10.0 mi Calm Calm - N/A   Overcast
5:35 PM 33.8 °F - 24.8 °F 70% 30.11 in 10.0 mi Calm Calm - N/A   Overcast
5:55 PM 33.8 °F 30.8 °F 24.8 °F 70% 30.11 in 10.0 mi SSW 3.5 mph - N/A   Overcast
6:15 PM 33.8 °F 30.8 °F 24.8 °F 70% 30.11 in 10.0 mi WSW 3.5 mph - N/A   Overcast
6:35 PM 33.8 °F 30.8 °F 24.8 °F 70% 30.12 in 10.0 mi WSW 3.5 mph - N/A   Overcast
6:55 PM 33.8 °F - 24.8 °F 70% 30.12 in 10.0 mi Calm Calm - N/A   Overcast
7:15 PM 33.8 °F - 26.6 °F 75% 30.11 in 10.0 mi Calm Calm - N/A   Overcast
7:55 PM 33.8 °F 30.8 °F 26.6 °F 75% 30.12 in 10.0 mi WNW 3.5 mph - N/A   Overcast
8:35 PM 30.2 °F 26.7 °F 24.8 °F 80% 30.10 in 10.0 mi NNE 3.5 mph - N/A   Partly Cloudy
8:55 PM 30.2 °F - 26.6 °F 86% 30.10 in 10.0 mi Calm Calm - N/A   Clear
9:35 PM 30.2 °F - 24.8 °F 80% 30.11 in 10.0 mi Calm Calm - N/A   Clear
9:55 PM 28.4 °F - 23.0 °F 80% 30.11 in 10.0 mi Calm Calm - N/A   Clear
10:15 PM 30.2 °F 26.7 °F 24.8 °F 80% 30.11 in 10.0 mi WNW 3.5 mph - N/A   Clear
10:35 PM 28.4 °F - 21.2 °F 74% 30.11 in 10.0 mi Calm Calm - N/A   Clear
10:55 PM - - - N/A% 30.11 in 10.0 mi Calm Calm - N/A   Clear
11:15 PM - - - N/A% 30.10 in 10.0 mi Calm Calm - N/A   Clear
11:35 PM 26.6 °F - 21.2 °F 80% 30.10 in 10.0 mi Calm Calm - N/A   Clear
11:55 PM 26.6 °F - 21.2 °F 80% 30.10 in 10.0 mi Calm Calm - N/A   Clear